Location: Heilbronn
(49.1548°N, 9.2780°E)
Time: 22:36:39
(UTC+02:00)

ISS - Visible Passes

Search period start: 26 July 2017 00:00
Search period end: 05 August 2017 00:00
Orbit: 400 x 408 km, 51.6° (Epoch: 27 July)

Date Brightness Start Highest point End Pass type
(mag) Time Alt. Az. Time Alt. Az. Time Alt. Az.
26 Jul -3.1 00:51:42 10° WNW 00:54:54 52° N 00:56:43 22° ENE visible
26 Jul -1.7 02:28:15 10° WNW 02:29:15 18° WNW 02:29:15 18° WNW visible
26 Jul -3.9 22:22:42 10° WSW 22:25:56 69° SSE 22:29:10 10° ENE visible
26 Jul -3.1 23:59:18 10° W 00:02:30 54° N 00:05:20 13° ENE visible
27 Jul -2.5 01:35:57 10° WNW 01:37:56 34° WNW 01:37:56 34° WNW visible
27 Jul -3.3 23:06:54 10° W 23:10:07 61° NNW 23:13:22 10° ENE visible
28 Jul -3.4 00:43:36 10° WNW 00:46:50 59° N 00:46:58 58° NNE visible
28 Jul -3.7 22:14:30 10° WSW 22:17:45 77° NNW 22:21:01 10° ENE visible
28 Jul -3.1 23:51:14 10° WNW 23:54:26 53° N 23:56:08 24° ENE visible
29 Jul -1.6 01:27:47 10° WNW 01:28:45 18° WNW 01:28:45 18° WNW visible
29 Jul -3.1 22:58:49 10° W 23:02:01 52° N 23:05:13 10° ENE visible
30 Jul -3.1 00:35:26 10° WNW 00:37:57 50° WNW 00:37:57 50° WNW visible
30 Jul -3.2 22:06:22 10° W 22:09:35 58° N 22:12:49 10° ENE visible
30 Jul -3.5 23:43:03 10° WNW 23:46:18 63° N 23:47:12 41° ENE visible
31 Jul -1.0 01:19:37 10° WNW 01:19:49 11° W 01:19:49 11° W visible
31 Jul -3.2 22:50:39 10° WNW 22:53:52 54° N 22:56:28 14° E visible
01 Aug -2.4 00:27:11 10° WNW 00:29:05 31° W 00:29:05 31° W visible
01 Aug -3.1 21:58:12 10° W 22:01:25 52° N 22:04:37 10° ENE visible
01 Aug -4.0 23:34:47 10° WNW 23:38:03 89° N 23:38:22 71° ESE visible
02 Aug -3.6 22:42:23 10° WNW 22:45:39 68° NNE 22:47:40 21° E visible
03 Aug -1.8 00:18:59 10° W 00:20:18 20° W 00:20:18 20° W visible
03 Aug -3.3 21:49:58 10° WNW 21:53:11 56° N 21:56:24 10° E visible
03 Aug -3.7 23:26:29 10° WNW 23:29:36 55° SW 23:29:36 55° SW visible
04 Aug -3.9 22:34:03 10° WNW 22:37:19 82° SSW 22:38:56 27° ESE visible
